Regional Weather Roundup
Issued by NWS Charleston, SC

Current Version | Previous Version | Graphics & Text | Print | Product List | Glossary On
Versions: 1 2 3 4 5 6 7 8 9 10 11 12 13 14 15 16 17 18 19 20 21 22 23 24 25 26 27 28 29 30 31 32 33 34 35 36 37 38 39 40 41 42 43 44 45 46 47 48 49 50
000
ASUS42 KCHS 071812
RWRCHS

REGIONAL WEATHER ROUNDUP
NATIONAL WEATHER SERVICE CHARLESTON SC
100 PM EST WED DEC 07 2016

NOTE: "FAIR" INDICATES FEW OR NO CLOUDS BELOW 12,000 FEET WITH NO
SIGNIFICANT WEATHER AND/OR OBSTRUCTIONS TO VISIBILITY.

NOT ALL STATIONS ARE QUALITY CONTROLLED. USE DATA WITH CAUTION...
ESPECIALLY DEWPOINT OBSERVATIONS.

SCZ027-030-031-034>040-042>050-071900-
...SOUTHEAST SOUTH CAROLINA...

CITY           SKY/WX    TMP DP  RH WIND       PRES   REMARKS
N CHARLESTON   MOSUNNY   60  50  69 CALM      30.05F
6HR MIN TEMP:  51; 6HR MAX TEMP:  58;

WATERFRONT PRK   N/A     56  52  86 VRB2      30.06F
MOUNT PLEASANT NOT AVBL
JOHNS ISLAND   FAIR      59  52  77 SE6       30.06F
PINOPOLIS        N/A     54  50  87 NW5       29.98F
MONCKS CORNER  MOCLDY    57  48  72 S6        30.05F
SUMMERVILLE    CLOUDY    54  54 100 CALM      30.07F
BEAUFORT MCAS  CLOUDY    58  54  86 VRB3      30.05F
6HR MIN TEMP:  54; 6HR MAX TEMP:  58;

BEAUFORT ARPT  CLOUDY    55  54  94 NE5       30.05F FOG
HILTON HEAD IS CLOUDY    61  55  82 N7        30.06F
WALTERBORO     CLOUDY    55 N/A N/A CALM      30.07F
ALLENDALE      CLOUDY    55  54  94 CALM      30.05F FOG

...SOUTHERN MIDLANDS AND PEE DEE...

CITY           SKY/WX    TMP DP  RH WIND       PRES   REMARKS
GEORGETOWN     NOT AVBL
KINGSTREE      FAIR      59  45  58 CALM      30.05F
ORANGEBURG     CLOUDY    53  49  86 CALM      30.06F
6HR MIN TEMP:  49; 6HR MAX TEMP:  54;

BARNWELL       NOT AVBL
AIKEN          CLOUDY    50  48  93 E5        30.09F FOG
MANNING        FAIR      55  46  71 SW3       30.06F
COLUMBIA       PTSUNNY   54  47  77 VRB3      30.06F
6HR MIN TEMP:  50; 6HR MAX TEMP:  56;

SUMTER         SUNNY     60  45  58 CALM      30.03F
6HR MIN TEMP:  46; 6HR MAX TEMP:  60;

FLORENCE       SUNNY     60  46  59 CALM      30.05F
6HR MIN TEMP:  44; 6HR MAX TEMP:  60;

MYRTLE BEACH   SUNNY     61  45  55 N7        30.06F
N MYRTLE BEACH SUNNY     61  45  55 NE7       30.03F
6HR MIN TEMP:  46; 6HR MAX TEMP:  61;


$$

GAZ063-065-086>088-099>101-113>116-118-119-134>141-150-071900-
...SOUTHEAST GEORGIA...

CITY           SKY/WX    TMP DP  RH WIND       PRES   REMARKS
SAVANNAH ARPT  CLOUDY    62  53  72 NW5       30.04F
6HR MIN TEMP:  49; 6HR MAX TEMP:  63;

HUNTER AAF     NOT AVBL
FORT STEWART   PTSUNNY   64  55  72 SW1       30.01F
6HR MIN TEMP:  55; 6HR MAX TEMP:  64;

STATESBORO     NOT AVBL
SYLVANIA       CLOUDY   N/A N/A N/A N5        30.06S
CLAXTON        CLOUDY    63  57  81 W5        30.04F

...CSRA...CENTRAL AND FAR SOUTHEAST GEORGIA...

CITY           SKY/WX    TMP DP  RH WIND       PRES   REMARKS
THOMSON        CLOUDY    54  54 100 SW3       30.10F
AUGUSTA-BUSH   CLOUDY    56  52  86 S3        30.05F FOG
6HR MIN TEMP:  50; 6HR MAX TEMP:  56;

AUGUSTA-DANIEL CLOUDY    54  50  86 SE3       30.06F FOG
SWAINSBORO     FAIR      63  52  67 SW7       30.05F
VIDALIA        SUNNY     66  55  68 W7        30.04F
EASTMAN        CLOUDY    64  44  49 W5        30.08F
HAZLEHURST     FAIR      66  56  70 SW5       30.03F
ALMA           MOSUNNY   66  54  65 SW7       30.03F
6HR MIN TEMP:  47; 6HR MAX TEMP:  66;

WAYCROSS       MOSUNNY   70  58  66 W5        30.04F
JESUP          CLOUDY    68  61  77 W6        30.04F
BAXLEY         PTSUNNY   66  59  77 NW6       30.03F
BRUNSWICK      PTSUNNY   68  59  73 SW6       30.05F
SAINT SIMONS   MOSUNNY   66  57  72 VRB3      30.03F
6HR MIN TEMP:  58; 6HR MAX TEMP:  67;


$$

SCZ027-028-034-036>038-045-046-048>050-GAZ119-141-071900-
...LAKE AND SUPPLEMENTAL COASTAL OBSERVATIONS...

STATION/POSITION TIME  TEMP    WIND        PRES    WAVE   SWELL
                       AIR SEA DIR/SP/G            HT/PER HT/PER/DIR
                 (UTC) (F)     (DEG/KT/KT) (MB)    (FT/S) (FT/S/D)
WINYAH BAY       1645   55     110/  5     1018.0
LAKE MURRAY      1720   52     240/  4/  5 1017.9S
ACE BASIN NERRS  1645   54        CALM     1018.0
FORT PULASKI     1742   59 62   90/  5/  7 1017.6F
SAPELO ISLAND    1700   65     220/  2     1018.0

$$

ANZ835-935-AMZ111-154-330-350-352-354-370-450-454-472-071900-
...C-MAN AND BUOY OBSERVATIONS...

STATION/POSITION TIME  TEMP    WIND        PRES    WAVE   SWELL
                       AIR SEA DIR/SP/G            HT/PER HT/PER/DIR
                 (UTC) (F)     (DEG/KT/KT) (MB)    (FT/S) (FT/S/D)
BUOY 41004       1750   61 74   10/  6/  8 1016.7F   2/ 7   2/130/ 7
BUOY 41008       1650   60 65   30/  4/  6 1017.6    2/ 5   2/150/ 5
FOLLY BEACH CMAN 1700   55      60/  1/  2 1018.8F
CAPERS NEARSHORE 1708   55 61   50/  2/  4 1017.9F
FRIPP NEARSHORE  1708   55 62   10/  4/  8 1017.8F


STATION/POSITION TIME  TEMP    WIND        PRES    WAVE   SWELL
                       AIR SEA DIR/SP/G            HT/PER HT/PER/DIR
                 (UTC) (F)     (DEG/KT/KT) (MB)    (FT/S) (FT/S/D)
5E ST. MARYS GA  1730      66                N/A     2/ 6
FRYING PAN BUOY  1743                        N/A     4/ 8   3/170/ 8
BUOY 41025       1750   55 76  360/ 14/ 19 1015.9F   6/ 9   5/ 80/ 9
CAPE LOOKOUT NC  1700   52     340/  9/ 12 1016.7F
BUOY 41002       1750   71 74  320/ 14/ 16 1014.6F   7/ 8   7/260/ 8
BUOY 41010       NOT AVBL
ST AUGUSTINE FL  1800   64 67   40/  7/  7 1017.9F


$$



USA.gov is the U.S. government's official web portal to all federal, state and local government web resources and services.